Location: Tel Aviv
(32.0670°N, 34.7670°E)
Time: 13:50:37
(UTC+03:00)

Explorer 11/Cluster Stage 4 - Pass Details

Date: 20 September 2024
Orbit: 464 x 1208 km, 28.8° (Epoch: 06 October)

Event Time Altitude Azimuth Distance (km) Brightness Sun altitude
Rises 08:40:04 0° 272° (W) 3,514 9.4 26.8°
Reaches altitude 10° 08:42:33 10° 268° (W) 2,678 8.9 27.3°
Maximum altitude 08:49:01 54° 192° (SSW) 1,283 8.1 28.6°
Drops below altitude 10° 08:56:31 10° 118° (ESE) 3,087 11.2 30.1°
Sets 08:59:33 0° 114° (ESE) 4,087 11.4 30.7°
